User: anonymous   Login
Location: La B�doule
(43.2468°N, 5.5934°E)
Time: 12:00:27
(UTC+00:00)
Language:

SL-24 DEB - Orbit

View from above orbital plane
View from above orbital plane
View from above satellite
View from above satellite

Ground track
Ground track

The orbit data is extracted from the following two-line orbital elements,

1 36510U 10013C   20227.20296662  .00000182  00000-0  34660-4 0  9990
2 36510  92.0313 136.3740 0021927 255.6995 104.1783 14.63193879551850
Epoch (UTC): 14 August 2020 04:52:16
Eccentricity: 0.0021927
inclination: 92.0313°
perigee height: 667 km
apogee height: 698 km
right ascension of ascending node: 136.3740°
argument of perigee: 255.6995°
revolutions per day: 14.63193879
mean anomaly at epoch: 104.1783°
orbit number at epoch: 55185

The dashed part of the orbit path shows where the satellite is in the earth's shadow,  

DLR